Find Starlink 34434

NORAD ID: 64422 Int'l Des: 2025-129 Owner: SPXS Country: US Constellation: starlink operational
LEOCIRCULAR

Live Position

Loading 3D Globe...

About Starlink 34434

Description loading...

Upcoming Passes

Passes for default location (London). Set your location on the main map for personalized predictions.

Altitude History

Loading altitude history...

Two-Line Element Set

1 64422U 25129L 26106.08031916 .00000850 00000-0 78976-4 0 9994
2 64422 70.0052 340.3597 0001693 289.2813 70.8163 14.98331472 46880
Epoch: Apr 16, 2026 • Age: 18 hours

Current Status

Altitude 579.9 km
Velocity 7.58 km/s
Sub-Earth Point 48.97°N, 138.74°W
Launch Date Jun 17, 2025
Age 0.8 years
Type internet

Technical Details

Classification Payload
Mass 575.00 kg
Dry Mass 530.00 kg
Total Mass 575.00 kg
Length 0.30 m
Diameter 4.10 m
Span 29.00 m
Shape Box + pan
Manufacturer SPXS
Bus Type Starlink V2MO
Phase Status In Orbit
Owner/State SPXS/US

Most Searched